Regional Weather Roundup
Issued by NWS

Home | Current Version | Previous Version | Graphics & Text | Print | Product List | Glossary On
Versions: 1 2 3 4 5 6 7 8 9 10 11 12 13 14 15 16 17 18 19 20 21 22 23 24 25 26 27 28
000
ASUS45 KBOI 241410
RWRID

IDAHO REGIONAL WEATHER ROUNDUP
NATIONAL WEATHER SERVICE BOISE ID
800 AM MDT SUN SEP 24 2017

NOTE: "FAIR" INDICATES FEW OR NO CLOUDS BELOW 12000 FEET
WITH NO SIGNIFICANT WEATHER AND/OR OBSTRUCTIONS TO VISIBILITY

IDZ012-014-241500-
SOUTHWEST IDAHO


CITY           SKY/WX    TMP DP  RH WIND       PRES   REMARKS
BOISE          CLEAR     36  32  85 S3        30.04R
CALDWELL       NOT AVBL
MOUNTAIN HOME  CLEAR     34  33  95 NW5       30.04R WCI  30
$$

IDZ016-017-241500-
SOUTHCENTRAL IDAHO


CITY           SKY/WX    TMP DP  RH WIND       PRES   REMARKS
BURLEY         PTCLDY    38  32  79 W8        30.01R WCI  32
JEROME         CLEAR     35  34  96 S5        30.03R WCI  31
TWIN FALLS     CLEAR     36  31  82 S9        30.04R WCI  29
$$

IDZ019>023-241500-
SOUTHEAST IDAHO


CITY           SKY/WX    TMP DP  RH WIND       PRES   REMARKS
IDAHO FALLS    CLOUDY    34  30  85 N3        30.00R
POCATELLO      CLOUDY    37  35  92 CALM      30.01R
REXBURG        CLEAR     34  28  79 CALM      29.99R
$$

IDZ006-010-011-018-031-032-241500-
CENTRAL IDAHO MOUNTAINS


CITY           SKY/WX    TMP DP  RH WIND       PRES   REMARKS
MCCALL         CLEAR     27  25  92 SW3       30.07R
HAILEY         CLEAR     32  27  80 NW7       30.04R WCI  26
STANLEY          N/A     25  24  96 CALM      30.09S
SALMON         CLEAR     27  25  92 CALM      30.13R
CHALLIS        PTCLDY    31  27  85 CALM      30.08S
$$

IDZ002-004-006-007-026-241500-
NORTHERN IDAHO


CITY           SKY/WX    TMP DP  RH WIND       PRES   REMARKS
LEWISTON       CLOUDY    48  43  82 SE3       30.14R
LOWELL           N/A     40  36  86 S3        30.22R
COEUR D`ALENE  PTCLDY    45  42  89 SE3       30.12R
MULLAN PASS    CLOUDY    35  33  92 CALM      30.11S
$$




USA.gov is the U.S. government's official web portal to all federal, state and local government web resources and services.